This is the latest recevied weather packets stored in our database for station/object KF0TNT. If no packets are shown the sender has not sent any weather packets the latest 10 day(s).
| Time | Temp. | Humidity | Pressure | Rain* | Wind** | Luminosity | Snow |
|---|---|---|---|---|---|---|---|
| 1777756115 | 17.78° C | 21% | 1022.8 hPa | 0 mm | - | 835 W/m² | - |
| 1777755812 | 17.22° C | 23% | 1022.8 hPa | 0 mm | - | 844 W/m² | - |
| 1777755509 | 17.22° C | 23% | 1023.1 hPa | 0 mm | - | 853 W/m² | - |
| 1777755205 | 17.22° C | 22% | 1023.1 hPa | 0 mm | - | 861 W/m² | - |
| 1777754902 | 16.67° C | 23% | 1023.1 hPa | 0 mm | - | 870 W/m² | - |
| 1777754600 | 16.67° C | 22% | 1023.3 hPa | 0 mm | - | 879 W/m² | - |
| 1777754297 | 16.67° C | 22% | 1023.3 hPa | 0 mm | - | 888 W/m² | - |
| 1777753995 | 16.67° C | 23% | 1023.1 hPa | 0 mm | - | 896 W/m² | - |
| 1777753695 | 16.67° C | 23% | 1023.2 hPa | 0 mm | - | 905 W/m² | - |
| 1777753393 | 16.67° C | 23% | 1023.2 hPa | 0 mm | - | 906 W/m² | - |
| 1777753091 | 16.67° C | 21% | 1023.2 hPa | 0 mm | - | 906 W/m² | - |
| 1777752786 | 16.67° C | 22% | 1023.5 hPa | 0 mm | - | 908 W/m² | - |
| 1777752483 | 16.11° C | 21% | 1023.2 hPa | 0 mm | - | 918 W/m² | - |
| 1777752179 | 16.11° C | 22% | 1023.6 hPa | 0 mm | - | 928 W/m² | - |
| 1777751877 | 16.11° C | 22% | 1023.2 hPa | 0 mm | - | 932 W/m² | - |
| 1777751573 | 15.56° C | 23% | 1023.3 hPa | 0 mm | - | 938 W/m² | - |
| 1777751270 | 15.56° C | 23% | 1023.5 hPa | 0 mm | - | 940 W/m² | - |
| 1777750967 | 16.67° C | 22% | 1023.6 hPa | 0 mm | - | 942 W/m² | - |
| 1777750663 | 16.11° C | 21% | 1023.5 hPa | 0 mm | - | 947 W/m² | - |
| 1777750360 | 16.11° C | 22% | 1023.8 hPa | 0 mm | - | 951 W/m² | - |
| 1777750060 | 15.56° C | 22% | 1023.6 hPa | 0 mm | - | 951 W/m² | - |
| 1777749758 | 15.56° C | 22% | 1023.5 hPa | 0 mm | - | 951 W/m² | - |
| 1777749455 | 15.56° C | 23% | 1023.7 hPa | 0 mm | - | 950 W/m² | - |
| 1777749153 | 15.56° C | 22% | 1023.6 hPa | 0 mm | - | 952 W/m² | - |
| 1777748850 | 15.56° C | 23% | 1023.6 hPa | 0 mm | - | 952 W/m² | - |
* Rain latest hour (hover to see other rain measurements)
** Current wind speed in m/s (hover to see current wind gust speed)